This is the latest recevied weather packets stored in our database for station/object IZ1RFL-3. If no packets are shown the sender has not sent any weather packets the latest 10 day(s).
| Time | Temp. | Humidity | Pressure | Rain* | Wind** | Luminosity | Snow |
|---|---|---|---|---|---|---|---|
| 1777596362 | 12.22° C | 69% | 1026.1 hPa | - | - | - | - |
| 1777595462 | 11.67° C | 70% | 1026.1 hPa | - | - | - | - |
| 1777594562 | 11.67° C | 70% | 1026.1 hPa | - | - | - | - |
| 1777593662 | 12.22° C | 69% | 1026.1 hPa | - | - | - | - |
| 1777592762 | 12.22° C | 69% | 1026.1 hPa | - | - | - | - |
| 1777591862 | 12.22° C | 69% | 1025.9 hPa | - | - | - | - |
| 1777590962 | 12.22° C | 71% | 1025.8 hPa | - | - | - | - |
| 1777590062 | 12.78° C | 69% | 1025.8 hPa | - | - | - | - |
| 1777589162 | 12.22° C | 69% | 1025.9 hPa | - | - | - | - |
| 1777588262 | 12.78° C | 68% | 1025.9 hPa | - | - | - | - |
| 1777587362 | 12.78° C | 67% | 1025.8 hPa | - | - | - | - |
| 1777586461 | 13.33° C | 66% | 1025.8 hPa | - | - | - | - |
| 1777585562 | 13.33° C | 65% | 1025.7 hPa | - | - | - | - |
| 1777584662 | 13.33° C | 64% | 1025.7 hPa | - | - | - | - |
| 1777583762 | 13.33° C | 65% | 1025.6 hPa | - | - | - | - |
| 1777582862 | 13.33° C | 65% | 1025.6 hPa | - | - | - | - |
| 1777581962 | 13.89° C | 65% | 1025.5 hPa | - | - | - | - |
| 1777581061 | 13.89° C | 64% | 1025.5 hPa | - | - | - | - |
| 1777580162 | 13.89° C | 63% | 1025.3 hPa | - | - | - | - |
| 1777579262 | 14.44° C | 62% | 1025.1 hPa | - | - | - | - |
| 1777578363 | 14.44° C | 62% | 1025 hPa | - | - | - | - |
| 1777577462 | 14.44° C | 62% | 1024.8 hPa | - | - | - | - |
| 1777576562 | 14.44° C | 62% | 1024.7 hPa | - | - | - | - |
| 1777575662 | 14.44° C | 61% | 1024.5 hPa | - | - | - | - |
| 1777574762 | 15° C | 59% | 1024.4 hPa | - | - | - | - |
* Rain since midnight (hover to see other rain measurements)
** Current wind speed in m/s (hover to see current wind gust speed)